Wind_Speed
5 5 5 4 4 3 1 1 2 3 5 7 9 10 11 11 11 11 10 9 8 8 8 8 7 6 5 5 5 5 5 5 6 5 5 4 4 4 5 5 5 4 3 3 2 2 2 1 1
7 6 6 6 5 4 2 1 2 3 5 7 8 10 10 11 11 11 10 9 8 8 8 8 7 6 5 5 5 5 5 5 6 5 5 4 4 5 5 5 4 3 3 3 3 3 2 2 2
9 8 7 7 6 5 4 3 2 3 4 6 8 9 10 11 11 11 10 9 9 9 8 8 7 6 5 5 5 5 5 5 6 6 5 4 4 4 4 4 4 3 3 3 3 3 3 3 2
9 9 9 8 7 5 4 3 3 3 5 6 7 9 10 11 10 10 10 10 10 10 9 7 6 5 5 5 5 5 5 6 6 6 5 4 4 4 4 4 4 3 3 4 4 4 4 4 4
10 10 9 9 7 7 5 4 3 3 5 5 7 8 10 11 10 10 10 10 10 10 8 7 6 5 5 5 5 6 6 6 6 6 5 5 5 5 5 5 5 5 4 5 5 4 5 4 4
11 10 10 9 8 7 6 4 4 4 5 6 6 8 9 10 10 10 10 10 10 9 8 7 7 6 6 6 6 6 6 6 7 7 6 6 5 6 6 6 6 6 6 6 5 5 5 5 5
12 11 11 10 9 8 6 5 5 5 5 5 7 7 8 9 10 10 10 10 10 8 7 6 7 7 6 6 6 6 6 6 7 7 7 6 6 6 7 6 6 6 7 7 6 6 6 6 6
12 12 12 11 10 9 8 7 6 6 6 7 8 7 8 9 10 10 10 10 9 8 8 7 7 7 7 7 7 7 6 6 7 7 7 7 7 7 7 6 7 7 7 7 7 7 7 6 7
12 13 12 12 11 10 9 8 8 7 7 7 7 8 8 9 10 10 10 9 9 8 8 8 7 7 8 8 8 7 7 7 7 7 8 8 8 7 7 7 7 7 7 8 8 7 7 7 8
12 12 12 13 12 12 11 10 9 8 8 7 7 7 7 9 10 10 9 9 9 8 8 7 8 8 9 9 9 8 8 7 7 8 8 9 9 8 8 8 8 8 8 8 8 8 8 9 9
13 13 14 14 14 13 13 12 10 9 10 8 7 6 6 8 9 9 9 8 8 8 8 8 8 9 9 10 10 9 9 9 8 9 9 9 9 9 9 9 9 9 9 9 9 9 10 9 9
15 15 15 15 16 15 14 13 12 12 11 9 8 6 6 7 8 9 9 9 9 9 9 8 9 9 10 11 11 10 10 10 10 9 9 9 10 10 9 9 9 10 10 10 11 10 10 10 11
16 17 17 17 17 17 16 14 13 12 11 11 10 7 6 6 7 7 8 8 9 9 9 9 10 10 11 12 12 11 11 11 10 10 9 9 9 10 9 9 9 10 10 11 11 12 11 12 12
17 18 18 18 19 18 17 15 14 13 11 10 10 8 8 7 7 7 7 8 9 10 10 11 11 12 12 12 12 13 12 12 11 11 11 10 10 10 10 10 10 10 10 11 11 11 11 12 12
19 19 19 19 20 19 18 16 14 14 13 12 11 10 9 8 7 7 7 8 9 9 10 11 11 12 12 12 13 13 13 12 12 12 11 11 11 11 11 11 11 10 10 11 11 11 11 11 13
20 20 20 20 20 20 19 16 15 16 15 14 13 12 10 9 9 8 8 8 9 9 10 11 12 13 13 13 13 13 13 13 12 12 11 11 11 11 11 11 10 10 10 10 11 12 12 12 13
21 20 20 20 21 21 20 18 17 17 16 14 13 13 12 11 11 10 9 9 9 10 11 13 13 13 14 14 14 14 13 13 12 12 11 11 12 11 11 11 10 10 10 10 11 12 12 13 13
21 21 21 21 22 22 21 19 19 18 16 15 14 14 14 13 12 11 11 11 11 11 12 13 14 14 15 15 15 14 13 13 12 12 12 12 12 12 12 11 10 10 10 10 10 11 12 13 14
22 21 21 21 22 23 22 21 20 19 18 16 15 15 15 14 13 13 13 12 13 14 14 14 14 14 14 14 14 13 12 12 11 12 12 11 11 11 11 11 11 11 11 10 10 11 12 12 13
23 22 21 21 22 23 22 21 20 20 19 17 17 16 15 15 15 15 15 15 16 16 15 14 14 13 13 13 13 12 11 11 11 11 11 11 11 11 11 12 12 11 11 11 11 11 11 12 13
24 23 21 22 22 23 23 22 20 20 20 19 18 17 16 15 15 16 16 16 17 17 15 15 14 14 13 13 12 12 11 11 11 10 10 10 10 10 11 11 11 11 11 11 11 11 12 13 13
24 22 23 23 23 24 23 22 20 20 19 18 17 18 18 16 16 16 16 16 17 16 15 15 15 14 13 13 12 12 12 11 11 11 10 10 10 10 10 10 11 11 11 10 11 12 13 13 13
24 24 24 24 25 25 24 23 20 20 18 17 18 18 17 17 17 17 17 17 16 15 16 15 15 15 14 13 12 12 12 12 11 11 10 10 10 10 10 10 10 11 11 11 11 12 12 13 13
25 25 25 25 26 25 23 23 19 19 17 17 18 18 18 17 18 17 16 16 15 16 16 16 16 15 14 14 13 12 12 12 11 11 11 10 10 10 10 9 9 10 10 10 11 11 11 12 13
26 26 27 27 27 26 23 23 19 17 17 17 17 17 18 17 17 17 17 16 16 16 17 16 15 15 14 13 13 12 13 12 11 11 11 11 10 9 9 9 9 9 9 9 10 10 10 11 12
26 27 28 28 27 26 24 24 20 18 17 17 16 16 16 15 15 16 17 17 17 17 16 16 15 15 14 13 13 14 13 12 11 11 11 10 10 9 10 9 8 9 9 9 9 9 9 10 11
27 28 27 28 28 27 26 24 21 20 19 17 16 16 16 15 15 16 16 17 17 16 15 14 14 14 14 14 13 13 13 12 11 10 9 9 9 9 9 8 8 8 8 8 8 9 10 10 11
28 27 27 28 28 27 26 24 22 20 20 18 17 17 16 16 16 16 17 17 17 16 15 14 14 14 14 14 13 13 12 13 11 10 9 9 8 8 8 8 8 8 8 8 9 10 10 11 11
29 29 29 28 29 27 26 24 21 20 19 18 17 17 17 16 17 17 17 17 16 15 15 15 14 14 13 13 12 12 12 11 10 10 9 9 8 8 8 8 8 9 9 9 9 9 10 10 10
29 30 30 30 29 28 26 23 21 20 19 18 18 17 17 17 16 17 17 16 15 16 15 15 14 14 14 13 13 12 10 10 10 10 10 10 9 9 9 8 9 10 10 9 9 9 9 8 9
Wind_Direction
210 213 210 216 216 213 185 26 14 33 26 27 31 26 24 16 9 2 360 358 353 345 341 339 339 343 351 355 5 9 4 356 353 351 346 346 344 343 337 329 324 312 312 325 319 322 328 323 334
218 217 216 228 229 234 246 300 350 12 16 30 30 25 20 12 6 1 357 354 346 339 338 338 336 341 348 351 357 359 355 350 346 345 340 336 335 340 339 342 338 319 307 307 303 295 293 293 295
221 221 221 228 229 248 259 269 306 352 6 23 25 19 14 7 3 1 358 351 343 340 337 336 338 341 346 345 344 345 343 342 340 336 336 335 331 332 334 343 339 326 303 296 296 289 284 285 297
224 225 228 232 236 249 258 276 292 338 2 12 14 13 8 1 358 358 357 351 344 340 338 339 342 345 348 345 342 337 334 332 332 329 330 322 314 317 326 326 320 306 290 288 293 289 283 287 289
227 228 231 232 233 242 249 264 275 326 348 1 9 10 3 356 353 350 348 346 341 339 337 338 344 343 342 341 340 335 329 324 324 322 318 312 309 310 315 309 304 299 291 287 288 291 278 285 282
232 232 231 231 235 246 252 259 279 304 328 347 1 5 358 349 345 344 343 343 341 340 341 338 342 335 336 335 334 331 327 320 318 315 307 300 300 298 302 300 299 299 292 289 281 281 278 273 272
235 234 230 230 236 244 254 265 274 298 317 335 345 353 352 345 344 345 343 341 340 339 346 342 343 337 332 331 327 327 324 317 315 311 304 296 295 295 297 294 293 295 299 292 283 278 270 264 261
239 232 232 232 237 241 251 262 276 298 316 327 337 346 347 344 345 345 344 345 343 342 346 343 342 337 333 333 330 325 321 314 312 308 306 302 298 296 292 294 292 292 293 286 280 278 270 261 258
238 234 235 234 238 241 251 263 278 295 309 323 332 338 340 343 344 342 344 347 344 341 342 339 337 334 334 334 330 325 320 313 307 303 300 298 295 291 286 284 284 285 282 275 274 270 266 261 254
238 238 236 236 240 245 253 260 270 287 303 308 316 330 336 341 341 338 338 340 341 339 338 338 333 332 332 330 327 322 319 314 308 303 297 294 291 288 285 281 279 280 276 267 267 268 263 260 254
239 236 238 237 242 248 255 261 266 282 297 300 304 315 323 330 333 333 333 331 332 332 331 330 328 329 329 326 323 318 316 312 308 303 298 292 289 285 283 281 281 280 275 264 262 266 263 257 250
240 236 237 239 243 248 253 260 266 278 292 296 303 307 315 322 322 326 330 334 334 330 328 326 323 322 323 323 321 316 312 311 309 302 298 294 289 285 282 280 281 279 272 264 262 264 265 256 253
241 237 238 239 242 247 253 259 268 278 287 295 297 299 306 317 315 317 323 330 333 330 325 322 322 323 322 320 319 314 308 306 303 299 296 293 289 285 281 277 280 278 270 263 263 264 263 258 253
243 240 241 242 246 250 251 256 265 273 278 284 289 287 295 306 311 309 315 324 324 324 324 319 316 317 315 314 314 311 308 301 296 295 293 289 286 282 281 279 281 280 272 266 262 260 258 254 249
244 244 243 243 247 249 252 256 264 269 274 278 281 282 289 300 304 305 313 319 321 319 318 318 315 314 312 311 311 307 305 297 290 291 291 286 283 281 281 279 282 279 275 266 261 261 255 251 250
245 243 242 242 246 249 251 255 260 265 270 271 275 279 287 296 296 298 305 311 316 315 316 314 314 311 308 309 310 308 302 298 293 289 285 283 283 280 282 280 277 275 270 265 260 258 253 253 255
246 244 243 243 246 249 251 252 254 260 266 267 272 276 283 289 291 292 298 304 309 310 309 311 310 310 309 308 307 305 300 296 293 289 281 280 279 278 280 280 278 273 268 265 260 255 252 252 255
247 247 244 244 248 250 253 253 250 255 264 268 270 270 275 282 286 289 294 299 303 305 306 307 309 309 307 306 305 302 297 292 291 287 280 280 280 278 276 278 279 275 270 268 265 257 256 256 256
245 247 246 247 249 250 251 253 252 254 260 264 268 267 271 275 280 284 288 295 300 304 303 305 307 306 303 303 303 301 295 293 291 286 281 279 279 279 277 276 277 274 270 269 269 263 261 262 262
245 246 246 245 246 251 251 252 254 256 260 263 269 271 273 276 279 280 282 292 299 303 303 304 304 305 306 303 300 297 292 293 290 284 280 278 276 275 275 275 275 273 269 269 270 266 264 266 264
247 247 246 245 246 251 253 253 255 259 262 264 268 272 272 272 273 278 280 286 296 298 298 300 301 304 301 300 297 294 289 288 289 284 280 280 279 278 276 274 273 271 269 268 268 267 266 267 265
247 247 246 246 247 249 253 255 254 258 261 266 270 270 269 268 270 273 278 284 292 294 295 299 298 299 296 294 294 291 288 287 283 278 278 279 279 280 278 275 273 271 271 271 271 270 267 268 265
246 245 245 246 248 250 253 257 256 258 262 264 267 267 266 267 267 271 275 282 288 290 292 294 294 294 292 290 289 287 286 285 280 274 272 275 275 276 278 278 274 273 272 272 273 272 267 265 262
242 242 244 245 247 249 253 258 258 258 261 263 263 262 264 267 267 269 273 276 281 285 289 289 289 290 290 289 287 287 288 289 277 268 270 270 271 273 275 274 275 277 276 274 275 273 269 264 260
240 241 243 244 246 250 252 256 258 259 261 261 261 262 264 265 268 269 273 274 275 281 286 286 285 286 286 286 287 287 288 288 282 274 271 269 268 269 271 269 272 277 276 278 277 271 269 264 261
239 241 243 247 250 251 250 253 256 258 260 260 263 266 264 263 268 273 275 274 274 279 284 284 283 285 284 285 286 284 286 283 278 281 272 268 266 268 269 266 266 273 276 279 278 272 269 267 268
237 240 243 247 249 250 249 251 254 256 259 259 262 265 265 266 269 274 276 271 272 277 281 281 283 284 284 286 284 282 280 277 275 275 267 266 266 268 268 265 269 270 278 281 278 274 271 267 269
235 238 240 244 248 249 249 251 256 255 260 260 261 265 268 269 272 276 279 273 272 275 278 281 280 281 280 285 282 279 276 272 268 265 262 257 263 270 269 267 268 272 278 281 281 279 274 270 269
233 235 238 242 246 249 250 251 256 258 259 258 261 265 270 271 273 275 278 273 271 274 277 282 282 281 282 286 284 281 277 264 255 253 254 254 262 267 268 266 267 273 275 279 283 285 284 275 269
235 236 238 241 245 247 249 249 252 255 255 255 260 266 270 272 271 272 275 274 272 273 277 278 279 280 285 286 281 276 273 263 258 252 252 255 261 264 267 268 270 273 274 276 282 285 286 281 278
Height
5884 5884 5885 5886 5888 5888 5887 5887 5886 5886 5886 5885 5885 5884 5884 5884 5884 5885 5882 5880 5880 5879 5878 5877 5876 5875 5875 5874 5874 5874 5874 5874 5874 5874 5874 5874 5874 5874 5874 5873 5872 5873 5874 5875 5876 5876 5877 5878 5878
5884 5884 5886 5887 5887 5887 5887 5887 5886 5886 5886 5885 5884 5884 5884 5883 5883 5882 5881 5880 5879 5878 5877 5876 5876 5875 5874 5874 5874 5874 5874 5874 5874 5874 5874 5874 5874 5873 5873 5872 5871 5872 5874 5875 5875 5876 5877 5877 5878
5883 5884 5886 5886 5886 5887 5887 5887 5886 5886 5886 5885 5885 5884 5884 5883 5882 5882 5881 5880 5879 5878 5877 5876 5875 5874 5874 5873 5873 5873 5874 5873 5873 5873 5873 5873 5873 5873 5873 5872 5872 5873 5874 5874 5875 5875 5876 5877 5877
5883 5884 5885 5886 5886 5886 5887 5886 5886 5886 5886 5885 5885 5884 5883 5883 5882 5881 5880 5879 5878 5877 5876 5875 5874 5874 5873 5873 5873 5873 5873 5873 5873 5872 5872 5872 5873 5873 5872 5872 5872 5873 5873 5874 5874 5875 5875 5876 5876
5882 5883 5884 5884 5885 5886 5886 5886 5885 5885 5885 5885 5885 5884 5883 5882 5881 5881 5880 5879 5877 5876 5875 5875 5874 5873 5872 5872 5872 5872 5872 5872 5872 5871 5871 5871 5872 5872 5872 5872 5872 5873 5873 5873 5873 5873 5874 5874 5875
5881 5882 5883 5883 5884 5885 5885 5885 5885 5885 5885 5885 5885 5884 5883 5882 5881 5880 5879 5878 5877 5876 5875 5874 5873 5872 5872 5872 5871 5871 5871 5871 5871 5871 5870 5870 5871 5871 5871 5871 5871 5871 5872 5872 5872 5873 5873 5873 5874
5880 5881 5881 5882 5883 5884 5884 5884 5884 5884 5884 5884 5884 5884 5883 5882 5881 5880 5879 5877 5876 5875 5874 5873 5872 5872 5871 5871 5870 5870 5870 5870 5870 5870 5869 5869 5869 5870 5870 5870 5870 5870 5871 5871 5871 5871 5872 5872 5873
5878 5880 5880 5881 5882 5883 5883 5883 5883 5883 5883 5884 5884 5883 5883 5882 5880 5879 5878 5877 5875 5874 5873 5872 5872 5871 5871 5870 5869 5869 5869 5869 5868 5868 5868 5868 5868 5868 5868 5868 5869 5869 5869 5869 5870 5870 5870 5871 5871
5876 5879 5878 5880 5880 5881 5881 5881 5882 5882 5882 5882 5882 5882 5882 5881 5880 5879 5877 5876 5875 5873 5873 5872 5871 5871 5870 5869 5868 5868 5868 5867 5867 5867 5867 5867 5867 5867 5867 5867 5867 5867 5867 5868 5868 5868 5868 5868 5869
5874 5876 5877 5878 5879 5879 5879 5880 5880 5881 5881 5881 5881 5881 5880 5880 5878 5878 5876 5875 5874 5873 5872 5871 5871 5870 5869 5868 5867 5867 5866 5866 5866 5865 5865 5865 5865 5865 5865 5866 5866 5865 5865 5866 5866 5866 5866 5867 5866
5872 5874 5874 5875 5876 5877 5878 5878 5878 5879 5880 5880 5880 5879 5879 5878 5877 5876 5875 5874 5873 5872 5871 5870 5870 5869 5868 5867 5866 5866 5865 5865 5864 5864 5864 5863 5863 5863 5863 5864 5864 5863 5863 5863 5864 5864 5864 5865 5865
5870 5871 5872 5873 5874 5875 5875 5876 5876 5877 5878 5878 5878 5878 5877 5877 5876 5875 5874 5873 5872 5871 5870 5869 5868 5868 5867 5866 5865 5864 5864 5863 5863 5862 5862 5861 5861 5861 5861 5861 5861 5861 5861 5861 5862 5863 5863 5863 5863
5867 5868 5869 5870 5871 5872 5873 5874 5874 5875 5876 5876 5876 5876 5876 5875 5875 5874 5873 5872 5871 5870 5869 5868 5867 5866 5865 5864 5863 5863 5862 5861 5861 5860 5860 5859 5859 5859 5859 5859 5859 5859 5859 5859 5859 5860 5860 5861 5861
5863 5865 5866 5867 5868 5869 5871 5872 5872 5873 5873 5874 5874 5874 5874 5874 5873 5872 5872 5870 5869 5868 5867 5866 5865 5865 5864 5862 5861 5860 5859 5859 5858 5858 5857 5857 5857 5857 5857 5857 5857 5856 5856 5857 5857 5857 5858 5858 5859
5860 5862 5864 5865 5866 5867 5868 5870 5870 5871 5871 5871 5872 5872 5872 5872 5871 5871 5870 5869 5868 5867 5866 5864 5864 5863 5862 5861 5859 5858 5857 5856 5856 5855 5855 5855 5854 5854 5854 5854 5854 5854 5854 5854 5854 5855 5855 5856 5857
5856 5858 5860 5862 5863 5864 5867 5868 5868 5868 5868 5869 5869 5869 5870 5870 5869 5868 5868 5867 5866 5865 5864 5863 5862 5861 5859 5858 5857 5855 5854 5853 5852 5852 5852 5852 5852 5852 5852 5852 5852 5851 5851 5851 5852 5852 5853 5853 5854
5852 5855 5857 5858 5859 5860 5862 5864 5865 5865 5865 5866 5867 5867 5867 5867 5866 5866 5865 5864 5863 5862 5861 5860 5859 5858 5857 5855 5854 5852 5851 5851 5850 5849 5849 5849 5849 5849 5849 5849 5849 5849 5849 5849 5849 5849 5850 5850 5851
5849 5851 5853 5854 5855 5856 5858 5860 5861 5861 5862 5863 5864 5865 5865 5865 5864 5863 5863 5862 5861 5860 5859 5858 5856 5855 5854 5852 5851 5849 5848 5848 5847 5847 5846 5846 5846 5846 5846 5846 5846 5846 5846 5846 5846 5846 5847 5847 5848
5845 5847 5849 5851 5851 5852 5853 5855 5857 5858 5859 5860 5861 5861 5862 5862 5861 5861 5860 5859 5858 5858 5856 5855 5853 5852 5851 5849 5847 5846 5845 5845 5844 5844 5843 5843 5843 5843 5843 5843 5843 5843 5843 5844 5844 5844 5844 5844 5844
5841 5843 5845 5847 5847 5848 5850 5851 5853 5854 5856 5857 5857 5858 5859 5859 5858 5857 5857 5856 5856 5855 5853 5852 5851 5849 5848 5846 5844 5843 5842 5842 5842 5841 5841 5840 5841 5841 5841 5841 5841 5840 5840 5840 5841 5841 5841 5841 5841
5837 5839 5841 5843 5843 5844 5846 5848 5850 5851 5852 5853 5854 5854 5855 5855 5855 5854 5853 5853 5853 5852 5850 5849 5848 5846 5845 5843 5842 5841 5840 5840 5839 5839 5838 5838 5838 5838 5838 5838 5838 5838 5837 5837 5837 5837 5837 5838 5838
5832 5835 5837 5838 5839 5840 5842 5843 5846 5847 5848 5849 5849 5850 5850 5850 5851 5850 5850 5849 5849 5848 5847 5846 5844 5843 5842 5840 5839 5839 5838 5837 5836 5836 5836 5835 5835 5835 5835 5835 5835 5835 5834 5834 5834 5834 5834 5834 5834
5828 5830 5831 5833 5834 5835 5837 5839 5842 5843 5844 5845 5845 5845 5845 5846 5846 5846 5846 5846 5845 5844 5843 5842 5841 5840 5838 5837 5836 5836 5835 5834 5834 5833 5833 5833 5833 5833 5832 5832 5832 5831 5831 5831 5831 5830 5830 5831 5831
5822 5824 5825 5827 5828 5831 5834 5835 5837 5839 5840 5840 5840 5840 5841 5841 5842 5842 5842 5841 5841 5841 5839 5838 5837 5836 5835 5834 5833 5832 5832 5831 5831 5831 5831 5831 5830 5830 5830 5829 5829 5828 5828 5827 5827 5827 5827 5827 5827
5816 5818 5820 5821 5823 5826 5829 5830 5833 5835 5836 5836 5836 5836 5836 5837 5837 5837 5838 5838 5837 5837 5836 5834 5834 5833 5832 5831 5830 5830 5829 5828 5828 5828 5828 5828 5828 5828 5827 5827 5826 5825 5825 5824 5824 5824 5823 5824 5824
5810 5813 5815 5817 5819 5822 5824 5825 5829 5831 5831 5831 5831 5832 5832 5833 5833 5833 5833 5833 5833 5832 5832 5831 5830 5829 5829 5828 5827 5826 5826 5826 5825 5825 5825 5825 5825 5825 5825 5824 5824 5823 5822 5822 5821 5821 5821 5821 5821
5804 5806 5810 5812 5813 5816 5818 5821 5824 5825 5826 5827 5828 5828 5828 5829 5829 5829 5829 5829 5828 5828 5828 5827 5826 5826 5825 5825 5824 5823 5823 5822 5822 5822 5822 5823 5823 5822 5822 5822 5821 5821 5820 5819 5819 5818 5818 5818 5818
5799 5802 5804 5806 5807 5810 5813 5816 5819 5821 5822 5823 5824 5824 5825 5825 5825 5825 5825 5824 5824 5824 5824 5823 5822 5822 5821 5820 5820 5819 5819 5818 5818 5819 5819 5820 5820 5820 5820 5819 5819 5819 5818 5817 5817 5816 5816 5816 5816
5793 5795 5798 5800 5802 5805 5808 5813 5814 5816 5817 5818 5819 5820 5820 5821 5821 5821 5821 5820 5820 5820 5820 5819 5818 5818 5817 5817 5816 5816 5815 5815 5815 5816 5817 5817 5817 5817 5817 5817 5817 5817 5816 5815 5815 5814 5814 5814 5814
5786 5789 5792 5795 5797 5800 5803 5809 5810 5811 5812 5814 5815 5816 5816 5817 5817 5817 5817 5816 5816 5816 5816 5815 5815 5814 5814 5813 5813 5813 5813 5813 5813 5813 5814 5814 5815 5815 5815 5815 5814 5814 5814 5813 5813 5812 5812 5812 5811